Regional Weather Roundup
Issued by NWS Midland/Odessa, TX

Skip options and go directly to product.
Home | Oldest Version | Next Version | Current Version | All | Text Only | Save Text | Print | Product List | Glossary On

Skip product version selection by date and time.   
013
ASUS44 KMAF 242001
RWRMAF
MIDLAND AREA WEATHER ROUNDUP
NATIONAL WEATHER SERVICE MIDLAND TX
300 PM CDT TUE MAY 24 2016

...IN SOUTHWEST TEXAS AND SOUTHEAST NEW MEXICO...

CITY           SKY/WX    TMP DP  RH WIND       PRES   REMARKS
ALPINE         CLOUDY    87  12   6 W17       30.09F
ANDREWS        FAIR      92  31  11 W12G18    29.92F
ARTESIA        CLOUDY    93  19   7 W26G37    29.90F
BIG SPRING     CLOUDY    84  62  47 SE12      29.91F
CARLSBAD       CLOUDY    89  17   7 W14       29.90F
DRYDEN         NOT AVBL
FORT STOCKTON  CLOUDY    93  25   8 W9        29.92F
GUAD PASS      NOT AVBL
HOBBS          MOSUNNY   90  14   6 SW17G25   29.95S
MARFA          CLOUDY    85  20   9 W15       30.08F
MIDLAND AIRPK  SUNNY     96  37  12 W6G20     29.89F
MIDLAND INTL   SUNNY     98  35  11 SW10      29.88F
ODESSA         SUNNY     97  22   7 SW10G26   29.90F
PECOS          CLOUDY    96  15   5 SW13G24   29.89F
PRESIDIO       FAIR      93  28   9 S9G17     29.94F
SEMINOLE       SUNNY     92  29  10 W9G21     29.93F
SNYDER           N/A     84  69  61 S14       29.91F
WINK           SUNNY     95  23   7 MISG      29.87F
$$
...OTHER STATIONS IN TEXAS...

CITY           SKY/WX    TMP DP  RH WIND       PRES   REMARKS
ABILENE        CLOUDY    80  70  71 SE14      29.92S
AMARILLO       SUNNY     88  54  31 S18G30    29.87F
AUSTIN         CLOUDY    87  74  64 SE15      29.93F
BROWNSVILLE    MOSUNNY   88  77  69 S16       29.89F HX 100
CORPUS CHRISTI PTSUNNY   87  76  69 SE20G26   29.91S
DALLAS FTW     CLOUDY    82  71  69 SE15      29.93F
DEL RIO        MOSUNNY   90  73  57 E14       29.87F
EL PASO        PTSUNNY   86  20   9 S10G22    29.99F
HOUSTON INT    PTSUNNY   85  75  72 SE18      29.98F
LUBBOCK        PTSUNNY   86  65  49 S20       29.89F
SAN ANGELO     MOSUNNY   85  70  60 S10G20    29.91S
SAN ANTONIO    CLOUDY    83  74  74 SE15      29.94S
WACO           CLOUDY    85  71  63 SE16      29.94F
WICHITA FALLS  NOT AVBL
$$
...OTHER LOCATIONS IN NEW MEXICO...

CITY           SKY/WX    TMP DP  RH WIND       PRES   REMARKS
ALAMAGORDO     SUNNY     84  19   9 SW14G20   29.98F
ALBUQUERQUE    MOSUNNY   77  21  12 SW14G23   29.99F
CANNON AFB     MOSUNNY   88  25  10 W15G24    29.92F
CLOVIS         SUNNY     88  28  11 SW22G28   29.92S
HOLLOMAN AFB   MOSUNNY   86  17   7 SW21G29   29.96F
ROSWELL        SUNNY     93  15   6 S18G24    29.88F
RUIDOSO          N/A     73  16  11 SW28G36   30.12S
SANTA FE       SUNNY     76  16  10 SW9G24    30.03F
TRUTH OR CONSE SUNNY     82  19   9 S14G30    29.96F
TUCUMCARI      SUNNY     91  20   7 W16G25    29.86F
$$

USA.gov is the U.S. government's official web portal to all federal, state and local government web resources and services.